Погода в Зуткулье

Россия / Забайкальский край     50°39′33″N   114°11′31″E
темп.,
°C
ветер,
м/с
пор.,
м/с
влажн.,
%
обл.,
%
осадки,
мм/ч
давл.,
гПа
погр.,
м
9 декабря, чт
чт900:00−9зсз2376100 0.0 101838
03:00−5сз71565100 0.0 1018468
06:00−6сз7187358 0.0 1020425
09:00−6сз7176467 0.0 1022439
12:00−6сз81668100 0.0 1024516
15:00−6сз81463100 0.0 1025833
18:00−9сз61268100 0.0 1028344
21:00−10сз51279100 0.0 1030352
10 декабря, пт
пт1000:00−12зсз398474 0.0 1031137
03:00−14зсз228762 0.0 103222
06:00−11сз2479100 0.0 1031106
09:00−11зсз2593100 0.3 1031195
12:00−10сз5976100 0.1 1031636
15:00−10сз610637 0.1 1030809
18:00−13сз510715 0.0 1032249
21:00−15зсз5117415 0.0 1034283
11 декабря, сб
сб1100:00−14зсз5117186 0.0 1033373
03:00−13зсз61368100 0.0 1032566
06:00−13зсз71468100 0.0 1031630
09:00−14зсз612735 0.0 1032325
12:00−12зсз8126840 0.0 10311359
15:00−13сз81266100 0.1 10301778
18:00−14сз71372100 0.1 10321072
21:00−15сз7137695 0.1 10331125
12 декабря, вс
вс1200:00−17сз8137569 0.0 1034834
03:00−17сз7147911 0.0 1035638
06:00−18сз613825 0.0 1035501
09:00−19зсз512865 0.0 1035311
12:00−16з38735 0.0 1033390
15:00−14зюз246438 0.0 1029336
18:00−16ю2388100 0.0 102738
21:00−16ююз2286100 0.0 102334
13 декабря, пн
пн1300:00−14юз2281100 0.0 101924
03:00−14зюз2279100 0.0 101627
06:00−14з2280100 0.0 101516
09:00−13з228090 0.0 101419
12:00−7зсз396547 0.0 1012252
15:00−5сз4964100 0.0 1010348
18:00−9сз2479100 0.0 101354
21:00−8зсз41074100 0.0 1013298